| time (UTC) | temp F | wind direction | speed MPH | gust MPH | rain 1hr in | rain 24hr in | rain mn in | humidity % | barometer mb |
| 20260502231509 | 58 | 170 | 0.0 | 3.0 | 0.00 | 0.03 | 0.00 | 88 | 1013.6 |
| 20260502231008 | 58 | 197 | 1.0 | 4.0 | 0.00 | 0.03 | 0.00 | 88 | 1013.8 |
| 20260502230507 | 58 | 168 | 2.0 | 4.0 | 0.00 | 0.03 | 0.00 | 88 | 1013.8 |
| 20260502230007 | 58 | 194 | 0.0 | 4.0 | 0.00 | 0.03 | 0.00 | 88 | 1013.7 |
| 20260502225505 | 58 | 202 | 3.0 | 4.0 | 0.00 | 0.03 | 0.00 | 88 | 1013.9 |
| 20260502225003 | 58 | 222 | 2.0 | 4.0 | 0.00 | 0.03 | 0.00 | 87 | 1013.9 |
| 20260502224502 | 58 | 212 | 2.0 | 3.0 | 0.00 | 0.03 | 0.00 | 87 | 1013.8 |
| 20260502224007 | 58 | 230 | 2.0 | 3.0 | 0.00 | 0.03 | 0.00 | 87 | 1013.6 |
| 20260502223504 | 58 | 215 | 1.0 | 3.0 | 0.00 | 0.03 | 0.00 | 86 | 1013.3 |
| 20260502223005 | 58 | 200 | 2.0 | 3.0 | 0.00 | 0.03 | 0.00 | 86 | 1013.7 |
| 20260502222502 | 58 | 14 | 1.0 | 2.0 | 0.00 | 0.03 | 0.00 | 86 | 1013.2 |
| 20260502222003 | 59 | 14 | 0.0 | 0.0 | 0.00 | 0.03 | 0.00 | 86 | 1012.9 |
| 20260502221502 | 59 | 14 | 0.0 | 3.0 | 0.00 | 0.03 | 0.00 | 86 | 1012.8 |
| 20260502221001 | 59 | 14 | 1.0 | 3.0 | 0.00 | 0.03 | 0.00 | 86 | 1012.7 |
| 20260502220500 | 59 | 7 | 2.0 | 3.0 | 0.01 | 0.03 | 0.00 | 86 | 1012.8 |
| 20260502215957 | 59 | 8 | 2.0 | 3.0 | 0.03 | 0.00 | 0.03 | 86 | 1012.8 |
| 20260502215451 | 59 | 11 | 2.0 | 3.0 | 0.03 | 0.00 | 0.03 | 86 | 1012.9 |
| 20260502214950 | 59 | 23 | 0.0 | 2.0 | 0.03 | 0.00 | 0.03 | 86 | 1013.0 |
| 20260502214445 | 59 | 23 | 0.0 | 1.0 | 0.03 | 0.00 | 0.03 | 86 | 1013.1 |
| 20260502213942 | 59 | 23 | 0.0 | 2.0 | 0.03 | 0.00 | 0.03 | 85 | 1013.3 |
| 20260502213433 | 59 | 23 | 0.0 | 2.0 | 0.03 | 0.00 | 0.03 | 85 | 1013.2 |
| 20260502212935 | 60 | 23 | 1.0 | 1.0 | 0.03 | 0.00 | 0.03 | 85 | 1013.4 |
| 20260502212432 | 60 | 23 | 0.0 | 2.0 | 0.03 | 0.00 | 0.03 | 84 | 1013.6 |
| 20260502211935 | 60 | 23 | 0.0 | 2.0 | 0.03 | 0.00 | 0.03 | 84 | 1013.6 |
| 20260502211431 | 61 | 23 | 0.0 | 2.0 | 0.03 | 0.00 | 0.03 | 82 | 1013.7 |
| 20260502210931 | 61 | 23 | 0.0 | 2.0 | 0.03 | 0.00 | 0.03 | 81 | 1013.9 |
| 20260502210423 | 62 | 45 | 0.0 | 3.0 | 0.02 | 0.00 | 0.02 | 78 | 1014.0 |
| 20260502205919 | 62 | 163 | 0.0 | 3.0 | 0.00 | 0.00 | 0.00 | 75 | 1014.3 |
| 20260502205417 | 62 | 109 | 0.0 | 7.0 | 0.00 | 0.00 | 0.00 | 76 | 1014.4 |
| 20260502204916 | 62 | 120 | 1.0 | 7.0 | 0.00 | 0.00 | 0.00 | 77 | 1014.3 |
| 20260502204415 | 61 | 129 | 2.0 | 3.0 | 0.00 | 0.00 | 0.00 | 78 | 1014.3 |
| 20260502203914 | 61 | 356 | 0.0 | 2.0 | 0.00 | 0.00 | 0.00 | 80 | 1014.1 |
| 20260502203414 | 61 | 356 | 0.0 | 1.0 | 0.00 | 0.00 | 0.00 | 80 | 1014.1 |
| 20260502202907 | 61 | 356 | 0.0 | 2.0 | 0.00 | 0.00 | 0.00 | 79 | 1013.9 |
| 20260502202407 | 61 | 356 | 1.0 | 2.0 | 0.00 | 0.00 | 0.00 | 79 | 1013.9 |
| 20260502201908 | 62 | 356 | 0.0 | 2.0 | 0.00 | 0.00 | 0.00 | 78 | 1013.9 |
| 20260502201405 | 62 | 356 | 0.0 | 0.0 | 0.00 | 0.00 | 0.00 | 78 | 1013.9 |
| 20260502200906 | 62 | 356 | 0.0 | 0.0 | 0.00 | 0.00 | 0.00 | 77 | 1014.1 |
| 20260502200406 | 63 | 356 | 0.0 | 1.0 | 0.00 | 0.00 | 0.00 | 76 | 1014.1 |
| 20260502195920 | 63 | 356 | 0.0 | 1.0 | 0.00 | 0.00 | 0.00 | 76 | 1014.1 |
| 20260502195406 | 63 | 356 | 0.0 | 3.0 | 0.00 | 0.00 | 0.00 | 76 | 1014.2 |
| 20260502194904 | 63 | 356 | 0.0 | 4.0 | 0.00 | 0.00 | 0.00 | 76 | 1014.2 |
| 20260502194402 | 63 | 341 | 2.0 | 4.0 | 0.00 | 0.00 | 0.00 | 76 | 1014.2 |
| 20260502193903 | 64 | 10 | 1.0 | 4.0 | 0.00 | 0.00 | 0.00 | 76 | 1014.3 |
| 20260502193402 | 64 | 346 | 1.0 | 3.0 | 0.00 | 0.00 | 0.00 | 76 | 1014.2 |
| 20260502192902 | 64 | 341 | 1.0 | 3.0 | 0.00 | 0.00 | 0.00 | 75 | 1014.3 |
| 20260502192403 | 64 | 335 | 1.0 | 3.0 | 0.00 | 0.00 | 0.00 | 75 | 1014.2 |
| 20260502191903 | 64 | 306 | 1.0 | 3.0 | 0.00 | 0.00 | 0.00 | 75 | 1014.2 |
| 20260502191402 | 65 | 345 | 1.0 | 3.0 | 0.00 | 0.00 | 0.00 | 75 | 1014.1 |
| 20260502190903 | 65 | 319 | 1.0 | 3.0 | 0.00 | 0.00 | 0.00 | 75 | 1014.1 |
| 20260502190402 | 65 | 326 | 1.0 | 3.0 | 0.00 | 0.00 | 0.00 | 74 | 1014.2 |
| 20260502185902 | 65 | 335 | 2.0 | 3.0 | 0.00 | 0.00 | 0.00 | 74 | 1014.0 |
| 20260502185403 | 65 | 276 | 1.0 | 3.0 | 0.00 | 0.00 | 0.00 | 73 | 1014.0 |
| 20260502184902 | 66 | 320 | 1.0 | 4.0 | 0.00 | 0.00 | 0.00 | 73 | 1014.1 |
| 20260502184401 | 66 | 324 | 0.0 | 4.0 | 0.00 | 0.00 | 0.00 | 72 | 1014.0 |
| 20260502183900 | 66 | 276 | 2.0 | 4.0 | 0.00 | 0.00 | 0.00 | 72 | 1014.1 |
| 20260502183358 | 66 | 308 | 1.0 | 4.0 | 0.00 | 0.00 | 0.00 | 71 | 1014.0 |
| 20260502182855 | 67 | 350 | 2.0 | 8.0 | 0.00 | 0.00 | 0.00 | 71 | 1014.1 |
| 20260502182353 | 67 | 343 | 3.0 | 8.0 | 0.00 | 0.00 | 0.00 | 71 | 1014.1 |
| 20260502181852 | 67 | 294 | 1.0 | 6.0 | 0.00 | 0.00 | 0.00 | 71 | 1014.1 |
| 20260502181351 | 68 | 297 | 1.0 | 7.0 | 0.00 | 0.00 | 0.00 | 72 | 1014.1 |
| 20260502180851 | 68 | 19 | 3.0 | 7.0 | 0.00 | 0.00 | 0.00 | 71 | 1014.2 |
| 20260502180341 | 69 | 338 | 3.0 | 10.0 | 0.00 | 0.00 | 0.00 | 70 | 1014.1 |
| 20260502170332 | 74 | 283 | 3.0 | 6.0 | 0.00 | 0.00 | 0.00 | 56 | 1014.3 |
| 20260502164327 | 75 | 230 | 4.0 | 6.0 | 0.00 | 0.00 | 0.00 | 55 | 1014.3 |
| 20260502163824 | 75 | 222 | 2.0 | 6.0 | 0.00 | 0.00 | 0.00 | 55 | 1014.4 |
| 20260502163323 | 75 | 111 | 3.0 | 8.0 | 0.00 | 0.00 | 0.00 | 55 | 1014.4 |
| 20260502162822 | 75 | 197 | 3.0 | 8.0 | 0.00 | 0.00 | 0.00 | 54 | 1014.5 |
| 20260502162315 | 75 | 172 | 3.0 | 7.0 | 0.00 | 0.00 | 0.00 | 55 | 1014.5 |
| 20260502161815 | 75 | 146 | 3.0 | 6.0 | 0.00 | 0.00 | 0.00 | 54 | 1014.6 |
| 20260502161313 | 75 | 208 | 3.0 | 5.0 | 0.00 | 0.00 | 0.00 | 55 | 1014.7 |
| 20260502160813 | 75 | 221 | 3.0 | 9.0 | 0.00 | 0.00 | 0.00 | 55 | 1014.6 |
| 20260502160313 | 76 | 218 | 5.0 | 9.0 | 0.00 | 0.00 | 0.00 | 54 | 1014.7 |
| 20260502152305 | 76 | 209 | 3.0 | 6.0 | 0.00 | 0.00 | 0.00 | 55 | 1015.0 |
| 20260502151802 | 75 | 286 | 2.0 | 8.0 | 0.00 | 0.00 | 0.00 | 55 | 1014.9 |
| 20260502151302 | 75 | 160 | 5.0 | 11.0 | 0.00 | 0.00 | 0.00 | 55 | 1015.0 |
| 20260502150802 | 75 | 265 | 4.0 | 11.0 | 0.00 | 0.00 | 0.00 | 55 | 1015.0 |
| 20260502150303 | 75 | 235 | 2.0 | 6.0 | 0.00 | 0.00 | 0.00 | 55 | 1015.2 |
| 20260502130725 | 74 | 170 | 4.0 | 11.0 | 0.00 | 0.00 | 0.00 | 55 | 1016.2 |
| 20260502130223 | 74 | 265 | 4.0 | 14.0 | 0.00 | 0.00 | 0.00 | 56 | 1016.2 |
| 20260502123717 | 74 | 176 | 3.0 | 10.0 | 0.00 | 0.00 | 0.00 | 56 | 1016.2 |
| 20260502123215 | 74 | 207 | 3.0 | 11.0 | 0.00 | 0.00 | 0.00 | 55 | 1016.3 |
| 20260502122714 | 74 | 235 | 3.0 | 11.0 | 0.00 | 0.00 | 0.00 | 55 | 1016.4 |
| 20260502122213 | 74 | 188 | 4.0 | 9.0 | 0.00 | 0.00 | 0.00 | 54 | 1016.3 |
| 20260502121712 | 75 | 202 | 4.0 | 9.0 | 0.00 | 0.00 | 0.00 | 53 | 1016.5 |
| 20260502121209 | 74 | 170 | 3.0 | 10.0 | 0.00 | 0.00 | 0.00 | 54 | 1016.6 |
| 20260502120707 | 74 | 196 | 6.0 | 12.0 | 0.00 | 0.00 | 0.00 | 55 | 1016.6 |
| 20260502120207 | 75 | 212 | 6.0 | 12.0 | 0.00 | 0.00 | 0.00 | 53 | 1016.6 |
| 20260502115705 | 75 | 180 | 6.0 | 10.0 | 0.00 | 0.00 | 0.00 | 52 | 1016.7 |
| 20260502115205 | 75 | 187 | 3.0 | 11.0 | 0.00 | 0.00 | 0.00 | 52 | 1016.7 |
| 20260502114707 | 76 | 179 | 7.0 | 13.0 | 0.00 | 0.00 | 0.00 | 50 | 1016.8 |
| 20260502114204 | 75 | 261 | 5.0 | 13.0 | 0.00 | 0.00 | 0.00 | 53 | 1016.8 |
| 20260502113705 | 75 | 201 | 4.0 | 11.0 | 0.00 | 0.00 | 0.00 | 51 | 1016.8 |
| 20260502113204 | 75 | 222 | 4.0 | 11.0 | 0.00 | 0.00 | 0.00 | 53 | 1017.0 |
| 20260502112710 | 76 | 245 | 6.0 | 11.0 | 0.00 | 0.00 | 0.00 | 49 | 1016.9 |
| 20260502112204 | 75 | 143 | 6.0 | 11.0 | 0.00 | 0.00 | 0.00 | 51 | 1016.9 |
| 20260502111702 | 75 | 212 | 7.0 | 11.0 | 0.00 | 0.00 | 0.00 | 51 | 1017.0 |
| 20260502111202 | 74 | 245 | 4.0 | 13.0 | 0.00 | 0.00 | 0.00 | 53 | 1016.9 |
| 20260502110659 | 75 | 157 | 5.0 | 13.0 | 0.00 | 0.00 | 0.00 | 51 | 1017.0 |
| 20260502110211 | 75 | 152 | 6.0 | 10.0 | 0.00 | 0.00 | 0.00 | 50 | 1016.8 |
| 20260502105657 | 74 | 222 | 5.0 | 10.0 | 0.00 | 0.00 | 0.00 | 52 | 1016.9 |
| 20260502105154 | 74 | 180 | 4.0 | 10.0 | 0.00 | 0.00 | 0.00 | 48 | 1017.0 |
| 20260502104653 | 74 | 168 | 4.0 | 8.0 | 0.00 | 0.00 | 0.00 | 47 | 1017.0 |
| 20260502104150 | 73 | 197 | 3.0 | 9.0 | 0.00 | 0.00 | 0.00 | 48 | 1016.9 |
| 20260502103648 | 73 | 137 | 4.0 | 9.0 | 0.00 | 0.00 | 0.00 | 47 | 1017.0 |
| 20260502103148 | 72 | 149 | 4.0 | 8.0 | 0.00 | 0.00 | 0.00 | 46 | 1017.0 |
| 20260502102647 | 72 | 199 | 2.0 | 8.0 | 0.00 | 0.00 | 0.00 | 46 | 1017.0 |
| 20260502102144 | 72 | 189 | 4.0 | 11.0 | 0.00 | 0.00 | 0.00 | 46 | 1017.2 |
| 20260502101645 | 72 | 180 | 7.0 | 11.0 | 0.00 | 0.00 | 0.00 | 45 | 1017.3 |
| 20260502101139 | 71 | 178 | 5.0 | 11.0 | 0.00 | 0.00 | 0.00 | 45 | 1017.2 |
| 20260502100641 | 71 | 136 | 6.0 | 11.0 | 0.00 | 0.00 | 0.00 | 46 | 1017.3 |
| 20260502100134 | 70 | 188 | 4.0 | 10.0 | 0.00 | 0.00 | 0.00 | 46 | 1017.3 |
| 20260502091120 | 68 | 145 | 5.0 | 8.0 | 0.00 | 0.00 | 0.00 | 47 | 1017.6 |
| 20260502090621 | 68 | 206 | 4.0 | 8.0 | 0.00 | 0.00 | 0.00 | 46 | 1017.4 |
| 20260502090118 | 67 | 152 | 4.0 | 9.0 | 0.00 | 0.00 | 0.00 | 49 | 1017.5 |
| 20260502080110 | 64 | 125 | 4.0 | 8.0 | 0.00 | 0.00 | 0.00 | 52 | 1017.4 |
| 20260502071054 | 63 | 145 | 2.0 | 8.0 | 0.00 | 0.00 | 0.00 | 53 | 1017.7 |
| 20260502070549 | 62 | 193 | 5.0 | 8.0 | 0.00 | 0.00 | 0.00 | 54 | 1017.8 |
| 20260502070101 | 62 | 130 | 3.0 | 9.0 | 0.00 | 0.00 | 0.00 | 55 | 1017.8 |
| 20260502065532 | 61 | 157 | 3.0 | 9.0 | 0.00 | 0.00 | 0.00 | 56 | 1018.0 |
| 20260502065031 | 61 | 163 | 5.0 | 10.0 | 0.00 | 0.00 | 0.00 | 56 | 1017.9 |
| 20260502064532 | 60 | 174 | 4.0 | 10.0 | 0.00 | 0.00 | 0.00 | 57 | 1018.0 |
| 20260502064030 | 60 | 109 | 3.0 | 7.0 | 0.00 | 0.00 | 0.00 | 57 | 1018.0 |
| 20260502063528 | 60 | 135 | 2.0 | 9.0 | 0.00 | 0.00 | 0.00 | 58 | 1017.9 |
| 20260502063027 | 60 | 104 | 4.0 | 9.0 | 0.00 | 0.00 | 0.00 | 57 | 1017.8 |
| 20260502062525 | 59 | 116 | 4.0 | 10.0 | 0.00 | 0.00 | 0.00 | 57 | 1017.8 |
| 20260502062024 | 59 | 77 | 3.0 | 10.0 | 0.00 | 0.00 | 0.00 | 57 | 1017.7 |
| 20260502061523 | 59 | 188 | 3.0 | 9.0 | 0.00 | 0.00 | 0.00 | 58 | 1017.7 |
| 20260502061021 | 58 | 142 | 1.0 | 5.0 | 0.00 | 0.00 | 0.00 | 60 | 1017.6 |
| 20260502060521 | 57 | 161 | 3.0 | 6.0 | 0.00 | 0.00 | 0.00 | 61 | 1017.7 |
| 20260502060023 | 55 | 181 | 2.0 | 6.0 | 0.00 | 0.00 | 0.00 | 64 | 1017.7 |
| 20260502055515 | 55 | 136 | 2.0 | 5.0 | 0.00 | 0.00 | 0.00 | 64 | 1017.6 |
| 20260502055011 | 55 | 173 | 1.0 | 4.0 | 0.00 | 0.00 | 0.00 | 64 | 1017.6 |
| 20260502054512 | 54 | 166 | 1.0 | 4.0 | 0.00 | 0.00 | 0.00 | 65 | 1017.5 |
| 20260502054003 | 54 | 119 | 1.0 | 7.0 | 0.00 | 0.00 | 0.00 | 65 | 1017.4 |
| 20260502053505 | 54 | 137 | 3.0 | 7.0 | 0.00 | 0.00 | 0.00 | 65 | 1017.5 |
| 20260502053018 | 53 | 192 | 2.0 | 6.0 | 0.00 | 0.00 | 0.00 | 65 | 1017.7 |
| 20260502052516 | 53 | 129 | 2.0 | 8.0 | 0.00 | 0.00 | 0.00 | 66 | 1017.7 |
| 20260502052004 | 53 | 141 | 2.0 | 8.0 | 0.00 | 0.00 | 0.00 | 66 | 1017.7 |
| 20260502051519 | 53 | 147 | 1.0 | 7.0 | 0.00 | 0.00 | 0.00 | 66 | 1017.7 |
| 20260502051004 | 52 | 180 | 1.0 | 7.0 | 0.00 | 0.00 | 0.00 | 67 | 1017.7 |
| 20260502050505 | 52 | 146 | 3.0 | 7.0 | 0.00 | 0.00 | 0.00 | 67 | 1017.8 |
| 20260502050008 | 52 | 133 | 2.0 | 4.0 | 0.00 | 0.00 | 0.00 | 66 | 1017.8 |
| 20260502045504 | 52 | 89 | 1.0 | 4.0 | 0.00 | 0.00 | 0.00 | 66 | 1017.8 |
| 20260502045003 | 52 | 168 | 0.0 | 3.0 | 0.00 | 0.00 | 0.00 | 65 | 1017.9 |
| 20260502044503 | 52 | 163 | 2.0 | 3.0 | 0.00 | 0.00 | 0.00 | 65 | 1017.9 |
| 20260502043958 | 52 | 180 | 0.0 | 3.0 | 0.00 | 0.00 | 0.00 | 65 | 1017.8 |
| 20260502043451 | 52 | 159 | 0.0 | 2.0 | 0.00 | 0.00 | 0.00 | 65 | 1017.9 |
| 20260502042950 | 52 | 147 | 0.0 | 2.0 | 0.00 | 0.00 | 0.00 | 65 | 1017.9 |
| 20260502042447 | 52 | 147 | 0.0 | 4.0 | 0.00 | 0.00 | 0.00 | 65 | 1017.8 |
| 20260502041946 | 52 | 116 | 1.0 | 4.0 | 0.00 | 0.00 | 0.00 | 65 | 1017.8 |
| 20260502041450 | 52 | 154 | 1.0 | 4.0 | 0.00 | 0.00 | 0.00 | 65 | 1017.8 |
| 20260502040945 | 52 | 141 | 1.0 | 3.0 | 0.00 | 0.00 | 0.00 | 65 | 1017.9 |
| 20260502040439 | 52 | 158 | 1.0 | 5.0 | 0.00 | 0.00 | 0.00 | 65 | 1018.0 |
| 20260502035934 | 52 | 143 | 1.0 | 5.0 | 0.00 | 0.00 | 0.00 | 65 | 1018.0 |
| 20260502035434 | 52 | 114 | 0.0 | 4.0 | 0.00 | 0.00 | 0.00 | 65 | 1018.1 |
| 20260502034938 | 52 | 164 | 0.0 | 4.0 | 0.00 | 0.00 | 0.00 | 65 | 1018.1 |
| 20260502034431 | 52 | 135 | 1.0 | 4.0 | 0.00 | 0.00 | 0.00 | 65 | 1018.1 |
| 20260502033931 | 52 | 137 | 0.0 | 3.0 | 0.00 | 0.00 | 0.00 | 64 | 1018.2 |
| 20260502033431 | 53 | 141 | 0.0 | 3.0 | 0.00 | 0.00 | 0.00 | 64 | 1018.2 |
| 20260502032931 | 53 | 145 | 0.0 | 4.0 | 0.00 | 0.00 | 0.00 | 63 | 1018.3 |
| 20260502032434 | 53 | 156 | 1.0 | 4.0 | 0.00 | 0.00 | 0.00 | 63 | 1018.3 |
| 20260502031931 | 53 | 155 | 1.0 | 3.0 | 0.00 | 0.00 | 0.00 | 63 | 1018.4 |
| 20260502031431 | 53 | 158 | 0.0 | 7.0 | 0.00 | 0.00 | 0.00 | 62 | 1018.3 |
| 20260502030931 | 53 | 147 | 3.0 | 7.0 | 0.00 | 0.00 | 0.00 | 63 | 1018.4 |
| 20260502030431 | 53 | 168 | 2.0 | 4.0 | 0.00 | 0.00 | 0.00 | 63 | 1018.5 |
| 20260502025931 | 52 | 144 | 1.0 | 4.0 | 0.00 | 0.00 | 0.00 | 64 | 1018.5 |
| 20260502025431 | 52 | 181 | 1.0 | 2.0 | 0.00 | 0.00 | 0.00 | 65 | 1018.4 |
| 20260502024931 | 52 | 167 | 0.0 | 2.0 | 0.00 | 0.00 | 0.00 | 65 | 1018.5 |
| 20260502024431 | 52 | 138 | 0.0 | 2.0 | 0.00 | 0.00 | 0.00 | 64 | 1018.6 |
| 20260502023934 | 52 | 138 | 0.0 | 1.0 | 0.00 | 0.00 | 0.00 | 63 | 1018.5 |
| 20260502023431 | 53 | 138 | 0.0 | 0.0 | 0.00 | 0.00 | 0.00 | 63 | 1018.6 |
| 20260502022931 | 53 | 138 | 0.0 | 2.0 | 0.00 | 0.00 | 0.00 | 63 | 1018.6 |
| 20260502022432 | 53 | 138 | 0.0 | 3.0 | 0.00 | 0.00 | 0.00 | 62 | 1018.7 |
| 20260502021931 | 54 | 138 | 0.0 | 3.0 | 0.00 | 0.00 | 0.00 | 61 | 1018.7 |
| 20260502021435 | 54 | 147 | 1.0 | 2.0 | 0.00 | 0.00 | 0.00 | 61 | 1018.8 |
| 20260502020929 | 54 | 154 | 0.0 | 4.0 | 0.00 | 0.00 | 0.00 | 61 | 1018.8 |
| 20260502020428 | 55 | 111 | 1.0 | 4.0 | 0.00 | 0.00 | 0.00 | 60 | 1018.9 |
| 20260502015926 | 55 | 170 | 1.0 | 3.0 | 0.00 | 0.00 | 0.00 | 60 | 1018.8 |
| 20260502015412 | 55 | 175 | 0.0 | 3.0 | 0.00 | 0.00 | 0.00 | 60 | 1018.9 |
| 20260502014917 | 55 | 170 | 0.0 | 3.0 | 0.00 | 0.00 | 0.00 | 59 | 1018.9 |
| 20260502014410 | 55 | 140 | 1.0 | 3.0 | 0.00 | 0.00 | 0.00 | 59 | 1018.9 |
| 20260502013910 | 55 | 117 | 0.0 | 6.0 | 0.00 | 0.00 | 0.00 | 59 | 1018.9 |
| 20260502013409 | 56 | 153 | 1.0 | 6.0 | 0.00 | 0.00 | 0.00 | 58 | 1018.9 |
| 20260502012905 | 56 | 143 | 0.0 | 3.0 | 0.00 | 0.00 | 0.00 | 58 | 1019.1 |
| 20260502012408 | 56 | 170 | 1.0 | 4.0 | 0.00 | 0.00 | 0.00 | 58 | 1019.0 |
| 20260502011905 | 56 | 156 | 1.0 | 4.0 | 0.00 | 0.00 | 0.00 | 57 | 1019.1 |
| 20260502011402 | 56 | 178 | 1.0 | 4.0 | 0.00 | 0.00 | 0.00 | 57 | 1019.1 |
| 20260502010857 | 56 | 145 | 1.0 | 4.0 | 0.00 | 0.00 | 0.00 | 58 | 1019.1 |
| 20260502010356 | 56 | 117 | 0.0 | 3.0 | 0.00 | 0.00 | 0.00 | 58 | 1019.2 |
| 20260502005845 | 56 | 154 | 1.0 | 3.0 | 0.00 | 0.00 | 0.00 | 57 | 1019.3 |
| 20260502005344 | 56 | 148 | 0.0 | 3.0 | 0.00 | 0.00 | 0.00 | 57 | 1019.4 |
| 20260502004843 | 56 | 135 | 1.0 | 5.0 | 0.00 | 0.00 | 0.00 | 57 | 1019.5 |
| 20260502004341 | 56 | 120 | 1.0 | 5.0 | 0.00 | 0.00 | 0.00 | 57 | 1019.5 |
| 20260502003838 | 56 | 154 | 1.0 | 6.0 | 0.00 | 0.00 | 0.00 | 57 | 1019.6 |
| 20260502003336 | 56 | 135 | 1.0 | 7.0 | 0.00 | 0.00 | 0.00 | 58 | 1019.6 |
| 20260502002835 | 56 | 164 | 1.0 | 7.0 | 0.00 | 0.00 | 0.00 | 58 | 1019.6 |
| 20260502002331 | 56 | 133 | 1.0 | 3.0 | 0.00 | 0.00 | 0.00 | 58 | 1019.6 |
| 20260502001832 | 56 | 162 | 0.0 | 3.0 | 0.00 | 0.00 | 0.00 | 59 | 1019.7 |
| 20260502001330 | 56 | 138 | 0.0 | 3.0 | 0.00 | 0.00 | 0.00 | 58 | 1019.7 |
| 20260502000831 | 56 | 172 | 1.0 | 3.0 | 0.00 | 0.00 | 0.00 | 59 | 1019.8 |
| 20260502000332 | 56 | 132 | 0.0 | 2.0 | 0.00 | 0.00 | 0.00 | 58 | 1019.9 |
| 20260501235831 | 56 | 147 | 0.0 | 2.0 | 0.00 | 0.00 | 0.00 | 58 | 1019.9 |
| 20260501235329 | 57 | 148 | 1.0 | 3.0 | 0.00 | 0.00 | 0.00 | 57 | 1019.9 |
| 20260501234826 | 57 | 168 | 1.0 | 3.0 | 0.00 | 0.00 | 0.00 | 57 | 1019.9 |
| 20260501234328 | 57 | 162 | 1.0 | 4.0 | 0.00 | 0.00 | 0.00 | 57 | 1019.9 |
| 20260501233826 | 56 | 136 | 0.0 | 4.0 | 0.00 | 0.00 | 0.00 | 58 | 1019.9 |
| 20260501233314 | 56 | 166 | 1.0 | 5.0 | 0.00 | 0.00 | 0.00 | 60 | 1019.9 |
| 20260501232814 | 55 | 135 | 0.0 | 5.0 | 0.00 | 0.00 | 0.00 | 62 | 1019.9 |
| 20260501232311 | 54 | 135 | 0.0 | 3.0 | 0.00 | 0.00 | 0.00 | 65 | 1019.9 |